Time,TemperatureF,DewpointF,PressureIn,WindDirection,WindDirectionDegrees,WindSpeedMPH,WindSpeedGustMPH,Humidity,HourlyPrecipIn,Conditions,Clouds,dailyrainin,SoftwareType,DateUTC
2013-08-06 00:00:00,61.3,48.6,29.78,ESE,123,2.0,6.0,63,0.00,CLR,CLR,0.00,WeatherDisplay:10.37,2013-08-06 06:00:00,
2013-08-06 00:05:00,61.2,48.9,29.79,ESE,118,0.0,5.0,64,0.00,CLR,CLR,0.00,WeatherDisplay:10.37,2013-08-06 06:05:00,
2013-08-06 00:10:00,60.9,48.6,29.79,ESE,109,0.0,5.0,64,0.00,CLR,CLR,0.00,WeatherDisplay:10.37,2013-08-06 06:10:00,
2013-08-06 00:15:00,60.4,48.2,29.79,ESE,123,3.0,7.0,64,0.00,CLR,CLR,0.00,WeatherDisplay:10.37,2013-08-06 06:15:00,
2013-08-06 00:20:00,60.0,48.2,29.79,SE,139,2.0,5.0,65,0.00,CLR,CLR,0.00,WeatherDisplay:10.37,2013-08-06 06:20:00,
2013-08-06 00:25:00,59.0,48.1,29.79,SE,146,1.0,4.0,67,0.00,CLR,CLR,0.00,WeatherDisplay:10.37,2013-08-06 06:25:00,
2013-08-06 00:30:00,58.4,47.9,29.79,SE,144,0.0,6.0,68,0.00,CLR,CLR,0.00,WeatherDisplay:10.37,2013-08-06 06:30:00,
2013-08-06 00:35:00,57.7,48.0,29.79,SE,135,0.0,3.0,70,0.00,CLR,CLR,0.00,WeatherDisplay:10.37,2013-08-06 06:35:00,
2013-08-06 00:40:00,57.2,47.9,29.79,SE,135,0.0,3.0,71,0.00,CLR,CLR,0.00,WeatherDisplay:10.37,2013-08-06 06:40:00,
2013-08-06 00:45:00,56.7,47.8,29.79,SE,137,0.0,0.0,72,0.00,CLR,CLR,0.00,WeatherDisplay:10.37,2013-08-06 06:45:00,
2013-08-06 00:50:00,56.1,47.6,29.79,SE,135,0.0,3.0,73,0.00,CLR,CLR,0.00,WeatherDisplay:10.37,2013-08-06 06:50:00,
2013-08-06 00:55:00,56.7,47.8,29.79,SE,124,0.0,3.0,72,0.00,CLR,CLR,0.00,WeatherDisplay:10.37,2013-08-06 06:55:00,
2013-08-06 01:00:00,56.7,47.8,29.79,SE,140,0.0,2.0,72,0.00,CLR,CLR,0.00,WeatherDisplay:10.37,2013-08-06 07:00:00,
2013-08-06 01:05:00,56.5,47.6,29.79,SE,145,0.0,0.0,72,0.00,CLR,CLR,0.00,WeatherDisplay:10.37,2013-08-06 07:05:00,
2013-08-06 01:10:00,56.5,47.6,29.79,SE,138,0.0,3.0,72,0.00,CLR,CLR,0.00,WeatherDisplay:10.37,2013-08-06 07:10:00,
2013-08-06 01:15:00,56.9,48.0,29.78,SE,129,1.0,3.0,72,0.00,CLR,CLR,0.00,WeatherDisplay:10.37,2013-08-06 07:15:00,
2013-08-06 01:20:00,57.6,47.9,29.79,SE,128,0.0,2.0,70,0.00,CLR,CLR,0.00,WeatherDisplay:10.37,2013-08-06 07:20:00,
2013-08-06 01:25:00,57.9,48.2,29.79,SE,131,0.0,1.0,70,0.00,CLR,CLR,0.00,WeatherDisplay:10.37,2013-08-06 07:25:00,
2013-08-06 01:30:00,57.8,48.1,29.78,SE,130,0.0,0.0,70,0.00,CLR,CLR,0.00,WeatherDisplay:10.37,2013-08-06 07:30:00,
2013-08-06 01:35:00,57.8,48.1,29.78,SE,124,1.0,6.0,70,0.00,CLR,CLR,0.00,WeatherDisplay:10.37,2013-08-06 07:35:00,
2013-08-06 01:40:00,57.8,48.1,29.78,ESE,118,1.0,4.0,70,0.00,CLR,CLR,0.00,WeatherDisplay:10.37,2013-08-06 07:40:00,
2013-08-06 01:45:00,57.6,47.9,29.78,ESE,118,0.0,4.0,70,0.00,CLR,CLR,0.00,WeatherDisplay:10.37,2013-08-06 07:45:00,
2013-08-06 01:50:00,56.8,47.5,29.78,SE,127,1.0,6.0,71,0.00,CLR,CLR,0.00,WeatherDisplay:10.37,2013-08-06 07:50:00,
2013-08-06 01:55:00,56.8,47.9,29.78,SE,136,0.0,4.0,72,0.00,CLR,CLR,0.00,WeatherDisplay:10.37,2013-08-06 07:55:00,
2013-08-06 02:00:00,56.5,47.9,29.78,SE,137,0.0,0.0,73,0.00,CLR,CLR,0.00,WeatherDisplay:10.37,2013-08-06 08:00:00,
2013-08-06 02:05:00,56.2,48.1,29.78,SE,136,0.0,0.0,74,0.00,CLR,CLR,0.00,WeatherDisplay:10.37,2013-08-06 08:05:00,
2013-08-06 02:10:00,56.0,47.8,29.78,SE,134,0.0,1.0,74,0.00,CLR,CLR,0.00,WeatherDisplay:10.37,2013-08-06 08:10:00,
2013-08-06 02:15:00,56.1,47.9,29.78,SE,130,0.0,0.0,74,0.00,CLR,CLR,0.00,WeatherDisplay:10.37,2013-08-06 08:15:00,
2013-08-06 02:20:00,56.3,48.2,29.79,SE,129,0.0,0.0,74,0.00,CLR,CLR,0.00,WeatherDisplay:10.37,2013-08-06 08:20:00,
2013-08-06 02:25:00,56.5,48.3,29.79,SE,129,0.0,1.0,74,0.00,CLR,CLR,0.00,WeatherDisplay:10.37,2013-08-06 08:25:00,
2013-08-06 02:30:00,56.7,48.1,29.78,SE,128,0.0,3.0,73,0.00,CLR,CLR,0.00,WeatherDisplay:10.37,2013-08-06 08:30:00,
2013-08-06 02:35:00,57.0,48.4,29.78,ESE,118,0.0,4.0,73,0.00,CLR,CLR,0.00,WeatherDisplay:10.37,2013-08-06 08:35:00,
2013-08-06 02:40:00,57.3,48.3,29.78,ESE,120,0.0,2.0,72,0.00,CLR,CLR,0.00,WeatherDisplay:10.37,2013-08-06 08:40:00,
2013-08-06 02:45:00,57.3,48.3,29.78,SE,145,2.0,4.0,72,0.00,CLR,CLR,0.00,WeatherDisplay:10.37,2013-08-06 08:45:00,
2013-08-06 02:50:00,56.9,48.4,29.78,SSE,148,0.0,1.0,73,0.00,CLR,CLR,0.00,WeatherDisplay:10.37,2013-08-06 08:50:00,
2013-08-06 02:55:00,56.6,48.4,29.78,SSE,151,0.0,3.0,74,0.00,CLR,CLR,0.00,WeatherDisplay:10.37,2013-08-06 08:55:00,
2013-08-06 03:00:00,56.3,48.5,29.78,SSE,150,0.0,2.0,75,0.00,CLR,CLR,0.00,WeatherDisplay:10.37,2013-08-06 09:00:00,
2013-08-06 03:05:00,56.3,48.5,29.78,SSE,148,0.0,2.0,75,0.00,CLR,CLR,0.00,WeatherDisplay:10.37,2013-08-06 09:05:00,
2013-08-06 03:10:00,56.3,48.1,29.78,SE,144,0.0,0.0,74,0.00,CLR,CLR,0.00,WeatherDisplay:10.37,2013-08-06 09:10:00,
2013-08-06 03:15:00,56.2,48.0,29.78,SE,144,0.0,0.0,74,0.00,CLR,CLR,0.00,WeatherDisplay:10.37,2013-08-06 09:15:00,
2013-08-06 03:20:00,56.3,48.1,29.77,SE,144,0.0,0.0,74,0.00,CLR,CLR,0.00,WeatherDisplay:10.37,2013-08-06 09:20:00,
2013-08-06 03:25:00,56.3,48.1,29.77,SE,144,0.0,0.0,74,0.00,CLR,CLR,0.00,WeatherDisplay:10.37,2013-08-06 09:25:00,
2013-08-06 03:30:00,56.0,48.2,29.77,SE,144,0.0,0.0,75,0.00,CLR,CLR,0.00,WeatherDisplay:10.37,2013-08-06 09:30:00,
2013-08-06 03:35:00,55.8,48.0,29.78,SE,128,0.0,2.0,75,0.00,CLR,CLR,0.00,WeatherDisplay:10.37,2013-08-06 09:35:00,
2013-08-06 03:40:00,55.9,47.8,29.77,East,94,0.0,1.0,74,0.00,CLR,CLR,0.00,WeatherDisplay:10.37,2013-08-06 09:40:00,
2013-08-06 03:45:00,55.9,47.7,29.77,East,91,0.0,0.0,74,0.00,CLR,CLR,0.00,WeatherDisplay:10.37,2013-08-06 09:45:00,
2013-08-06 03:50:00,55.4,47.6,29.77,East,91,0.0,0.0,75,0.00,CLR,CLR,0.00,WeatherDisplay:10.37,2013-08-06 09:50:00,
2013-08-06 03:55:00,55.1,47.7,29.77,East,91,0.0,0.0,76,0.00,CLR,CLR,0.00,WeatherDisplay:10.37,2013-08-06 09:55:00,
2013-08-06 04:00:00,55.0,47.6,29.77,East,91,0.0,0.0,76,0.00,CLR,CLR,0.00,WeatherDisplay:10.37,2013-08-06 10:00:00,
2013-08-06 04:05:00,54.6,47.2,29.77,East,91,0.0,0.0,76,0.00,CLR,CLR,0.00,WeatherDisplay:10.37,2013-08-06 10:05:00,
2013-08-06 04:10:00,54.3,47.2,29.78,East,91,0.0,0.0,77,0.00,CLR,CLR,0.00,WeatherDisplay:10.37,2013-08-06 10:10:00,
2013-08-06 04:15:00,53.9,47.2,29.78,East,91,0.0,0.0,78,0.00,CLR,CLR,0.00,WeatherDisplay:10.37,2013-08-06 10:15:00,
2013-08-06 04:20:00,53.6,47.2,29.78,East,91,0.0,0.0,79,0.00,CLR,CLR,0.00,WeatherDisplay:10.37,2013-08-06 10:20:00,
2013-08-06 04:25:00,53.9,47.5,29.78,ESE,105,0.0,0.0,79,0.00,CLR,CLR,0.00,WeatherDisplay:10.37,2013-08-06 10:25:00,
2013-08-06 04:30:00,54.0,47.6,29.78,SE,128,0.0,0.0,79,0.00,CLR,CLR,0.00,WeatherDisplay:10.37,2013-08-06 10:30:00,
2013-08-06 04:35:00,53.9,47.5,29.78,SE,136,0.0,0.0,79,0.00,CLR,CLR,0.00,WeatherDisplay:10.37,2013-08-06 10:35:00,
2013-08-06 04:50:00,53.2,47.2,29.78,SE,136,0.0,0.0,80,0.00,CLR,CLR,0.00,WeatherDisplay:10.37,2013-08-06 10:50:00,
2013-08-06 04:55:00,53.2,47.2,29.79,SE,136,0.0,1.0,80,0.00,CLR,CLR,0.00,WeatherDisplay:10.37,2013-08-06 10:55:00,
2013-08-06 05:00:00,53.4,47.4,29.78,SE,137,0.0,0.0,80,0.00,CLR,CLR,0.00,WeatherDisplay:10.37,2013-08-06 11:00:00,
2013-08-06 05:05:00,53.3,47.3,29.78,SE,142,1.0,4.0,80,0.00,CLR,CLR,0.00,WeatherDisplay:10.37,2013-08-06 11:05:00,
2013-08-06 05:10:00,53.2,47.2,29.78,SSE,147,0.0,3.0,80,0.00,CLR,CLR,0.00,WeatherDisplay:10.37,2013-08-06 11:10:00,
2013-08-06 05:15:00,53.2,47.2,29.78,SSE,147,0.0,1.0,80,0.00,CLR,CLR,0.00,WeatherDisplay:10.37,2013-08-06 11:15:00,
2013-08-06 05:20:00,53.5,47.5,29.78,SE,140,0.0,2.0,80,0.00,CLR,CLR,0.00,WeatherDisplay:10.37,2013-08-06 11:20:00,
2013-08-06 05:25:00,53.9,47.5,29.78,ESE,109,0.0,0.0,79,0.00,CLR,CLR,0.00,WeatherDisplay:10.37,2013-08-06 11:25:00,
2013-08-06 05:30:00,54.0,47.3,29.78,East,96,0.0,0.0,78,0.00,CLR,CLR,0.00,WeatherDisplay:10.37,2013-08-06 11:30:00,
2013-08-06 05:35:00,53.8,47.1,29.79,East,98,0.0,0.0,78,0.00,CLR,CLR,0.00,WeatherDisplay:10.37,2013-08-06 11:35:00,
2013-08-06 05:40:00,53.6,46.9,29.79,East,99,0.0,0.0,78,0.00,CLR,CLR,0.00,WeatherDisplay:10.37,2013-08-06 11:40:00,
2013-08-06 05:45:00,53.7,46.7,29.79,East,100,0.0,0.0,77,0.00,CLR,CLR,0.00,WeatherDisplay:10.37,2013-08-06 11:45:00,
2013-08-06 05:50:00,53.5,46.8,29.79,East,100,0.0,0.0,78,0.00,CLR,CLR,0.00,WeatherDisplay:10.37,2013-08-06 11:50:00,
2013-08-06 05:55:00,53.3,46.6,29.80,East,100,0.0,0.0,78,0.00,CLR,CLR,0.00,WeatherDisplay:10.37,2013-08-06 11:55:00,
2013-08-06 06:00:00,52.8,46.2,29.80,East,100,0.0,0.0,78,0.00,CLR,CLR,0.00,WeatherDisplay:10.37,2013-08-06 12:00:00,
2013-08-06 06:05:00,52.2,45.9,29.80,East,100,0.0,0.0,79,0.00,CLR,CLR,0.00,WeatherDisplay:10.37,2013-08-06 12:05:00,
2013-08-06 06:10:00,52.2,46.2,29.80,ESE,122,0.0,2.0,80,0.00,CLR,CLR,0.00,WeatherDisplay:10.37,2013-08-06 12:10:00,
2013-08-06 06:15:00,51.9,45.9,29.80,SSE,147,0.0,0.0,80,0.00,CLR,CLR,0.00,WeatherDisplay:10.37,2013-08-06 12:15:00,
2013-08-06 06:20:00,51.6,46.0,29.80,SSE,147,2.0,3.0,81,0.00,CLR,CLR,0.00,WeatherDisplay:10.37,2013-08-06 12:20:00,
2013-08-06 06:25:00,51.6,46.0,29.80,SSE,147,0.0,2.0,81,0.00,CLR,CLR,0.00,WeatherDisplay:10.37,2013-08-06 12:25:00,
2013-08-06 06:30:00,51.6,46.3,29.80,SSE,148,0.0,0.0,82,0.00,CLR,CLR,0.00,WeatherDisplay:10.37,2013-08-06 12:30:00,
2013-08-06 06:35:00,51.6,46.3,29.80,SSE,149,0.0,0.0,82,0.00,CLR,CLR,0.00,WeatherDisplay:10.37,2013-08-06 12:35:00,
2013-08-06 06:40:00,51.7,46.4,29.80,SSE,150,0.0,0.0,82,0.00,CLR,CLR,0.00,WeatherDisplay:10.37,2013-08-06 12:40:00,
2013-08-06 06:45:00,52.2,46.9,29.80,SSE,150,0.0,0.0,82,0.00,CLR,CLR,0.00,WeatherDisplay:10.37,2013-08-06 12:45:00,
2013-08-06 06:50:00,52.7,47.0,29.80,SSE,150,0.0,0.0,81,0.00,CLR,CLR,0.00,WeatherDisplay:10.37,2013-08-06 12:50:00,
2013-08-06 06:55:00,53.4,47.8,29.80,SSE,150,0.0,2.0,81,0.00,CLR,CLR,0.00,WeatherDisplay:10.37,2013-08-06 12:55:00,
2013-08-06 07:00:00,54.7,48.3,29.81,SSE,148,0.0,2.0,79,0.00,CLR,CLR,0.00,WeatherDisplay:10.37,2013-08-06 13:00:00,
2013-08-06 07:05:00,55.9,48.8,29.80,SE,144,0.0,0.0,77,0.00,CLR,CLR,0.00,WeatherDisplay:10.37,2013-08-06 13:05:00,
2013-08-06 07:10:00,57.0,49.2,29.81,SSE,151,0.0,0.0,75,0.00,CLR,CLR,0.00,WeatherDisplay:10.37,2013-08-06 13:10:00,
2013-08-06 07:15:00,57.9,49.3,29.81,SSE,156,0.0,0.0,73,0.00,CLR,CLR,0.00,WeatherDisplay:10.37,2013-08-06 13:15:00,
2013-08-06 07:20:00,58.6,49.2,29.81,SSW,204,0.0,0.0,71,0.00,CLR,CLR,0.00,WeatherDisplay:10.37,2013-08-06 13:20:00,
2013-08-06 07:25:00,59.0,48.9,29.81,West,260,0.0,1.0,69,0.00,CLR,CLR,0.00,WeatherDisplay:10.37,2013-08-06 13:25:00,
2013-08-06 07:30:00,59.6,48.6,29.81,West,270,0.0,2.0,67,0.00,CLR,CLR,0.00,WeatherDisplay:10.37,2013-08-06 13:30:00,
2013-08-06 07:40:00,60.0,49.1,29.81,WNW,290,0.0,0.0,67,0.00,CLR,CLR,0.00,WeatherDisplay:10.37,2013-08-06 13:40:00,
2013-08-06 07:45:00,60.8,49.4,29.81,WNW,290,0.0,2.0,66,0.00,CLR,CLR,0.00,WeatherDisplay:10.37,2013-08-06 13:45:00,
2013-08-06 07:50:00,61.7,49.4,29.81,WNW,290,0.0,0.0,64,0.00,CLR,CLR,0.00,WeatherDisplay:10.37,2013-08-06 13:50:00,
2013-08-06 07:55:00,62.4,50.4,29.81,WNW,290,0.0,0.0,65,0.00,CLR,CLR,0.00,WeatherDisplay:10.37,2013-08-06 13:55:00,
2013-08-06 08:00:00,63.5,49.3,29.81,WNW,290,0.0,0.0,60,0.00,CLR,CLR,0.00,WeatherDisplay:10.37,2013-08-06 14:00:00,
2013-08-06 08:05:00,64.4,50.2,29.81,WNW,290,0.0,0.0,60,0.00,CLR,CLR,0.00,WeatherDisplay:10.37,2013-08-06 14:05:00,
2013-08-06 08:10:00,64.7,50.1,29.81,WNW,290,0.0,0.0,59,0.00,CLR,CLR,0.00,WeatherDisplay:10.37,2013-08-06 14:10:00,
2013-08-06 08:15:00,64.9,51.6,29.81,WNW,290,0.0,0.0,62,0.00,CLR,CLR,0.00,WeatherDisplay:10.37,2013-08-06 14:15:00,
2013-08-06 08:20:00,65.2,51.0,29.81,WNW,288,0.0,0.0,60,0.00,CLR,CLR,0.00,WeatherDisplay:10.37,2013-08-06 14:20:00,
2013-08-06 08:25:00,65.7,51.4,29.81,WNW,282,0.0,0.0,60,0.00,CLR,CLR,0.00,WeatherDisplay:10.37,2013-08-06 14:25:00,
2013-08-06 08:30:00,66.1,51.8,29.81,West,278,0.0,0.0,60,0.00,CLR,CLR,0.00,WeatherDisplay:10.37,2013-08-06 14:30:00,
2013-08-06 08:35:00,66.8,51.1,29.81,NW,309,0.0,0.0,57,0.00,CLR,CLR,0.00,WeatherDisplay:10.37,2013-08-06 14:35:00,
2013-08-06 08:40:00,67.6,51.3,29.81,NNW,341,0.0,0.0,56,0.00,CLR,CLR,0.00,WeatherDisplay:10.37,2013-08-06 14:40:00,
2013-08-06 08:45:00,67.6,50.4,29.81,NNW,342,0.0,0.0,54,0.00,CLR,CLR,0.00,WeatherDisplay:10.37,2013-08-06 14:45:00,
2013-08-06 08:50:00,67.8,50.6,29.81,NNW,342,1.0,3.0,54,0.00,CLR,CLR,0.00,WeatherDisplay:10.37,2013-08-06 14:50:00,
2013-08-06 08:55:00,67.8,52.0,29.81,NNW,337,0.0,3.0,57,0.00,CLR,CLR,0.00,WeatherDisplay:10.37,2013-08-06 14:55:00,
2013-08-06 09:00:00,67.8,52.0,29.81,NW,314,0.0,1.0,57,0.00,CLR,CLR,0.00,WeatherDisplay:10.37,2013-08-06 15:00:00,
2013-08-06 09:05:00,68.0,51.2,29.81,SW,229,0.0,0.0,55,0.00,CLR,CLR,0.00,WeatherDisplay:10.37,2013-08-06 15:05:00,
2013-08-06 09:10:00,68.5,51.2,29.81,SW,218,0.0,1.0,54,0.00,CLR,CLR,0.00,WeatherDisplay:10.37,2013-08-06 15:10:00,
2013-08-06 09:15:00,68.7,50.9,29.81,SW,215,1.0,3.0,53,0.00,CLR,CLR,0.00,WeatherDisplay:10.37,2013-08-06 15:15:00,
2013-08-06 09:20:00,68.7,49.8,29.81,SW,222,0.0,1.0,51,0.00,CLR,CLR,0.00,WeatherDisplay:10.37,2013-08-06 15:20:00,
2013-08-06 09:30:00,69.4,51.5,29.81,WSW,241,0.0,4.0,53,0.00,CLR,CLR,0.00,WeatherDisplay:10.37,2013-08-06 15:30:00,
2013-08-06 09:35:00,69.7,50.8,29.81,WSW,256,0.0,3.0,51,0.00,CLR,CLR,0.00,WeatherDisplay:10.37,2013-08-06 15:35:00,
2013-08-06 09:40:00,70.1,51.1,29.81,WSW,256,0.0,0.0,51,0.00,CLR,CLR,0.00,WeatherDisplay:10.37,2013-08-06 15:40:00,
2013-08-06 09:45:00,70.8,50.1,29.81,WSW,237,0.0,1.0,48,0.00,CLR,CLR,0.00,WeatherDisplay:10.37,2013-08-06 15:45:00,
2013-08-06 09:50:00,71.3,51.7,29.81,SSW,211,0.0,1.0,50,0.00,CLR,CLR,0.00,WeatherDisplay:10.37,2013-08-06 15:50:00,
2013-08-06 10:00:00,71.6,50.3,29.81,WNW,303,0.0,3.0,47,0.00,CLR,CLR,0.00,WeatherDisplay:10.37,2013-08-06 16:00:00,
2013-08-06 10:05:00,71.3,50.0,29.81,NW,310,0.0,1.0,47,0.00,CLR,CLR,0.00,WeatherDisplay:10.37,2013-08-06 16:05:00,
2013-08-06 10:10:00,71.2,50.5,29.81,NW,310,0.0,1.0,48,0.00,CLR,CLR,0.00,WeatherDisplay:10.37,2013-08-06 16:10:00,
2013-08-06 10:15:00,71.1,50.9,29.80,NW,310,0.0,1.0,49,0.00,CLR,CLR,0.00,WeatherDisplay:10.37,2013-08-06 16:15:00,
2013-08-06 10:20:00,71.0,52.5,29.80,NW,310,0.0,1.0,52,0.00,CLR,CLR,0.00,WeatherDisplay:10.37,2013-08-06 16:20:00,
2013-08-06 10:25:00,71.0,52.0,29.80,NW,310,0.0,0.0,51,0.00,CLR,CLR,0.00,WeatherDisplay:10.37,2013-08-06 16:25:00,
2013-08-06 10:30:00,71.3,51.7,29.80,NW,310,0.0,0.0,50,0.00,CLR,CLR,0.00,WeatherDisplay:10.37,2013-08-06 16:30:00,
2013-08-06 10:35:00,72.2,50.9,29.80,NW,307,0.0,1.0,47,0.00,CLR,CLR,0.00,WeatherDisplay:10.37,2013-08-06 16:35:00,
2013-08-06 10:40:00,73.1,52.2,29.80,WNW,301,0.0,0.0,48,0.00,CLR,CLR,0.00,WeatherDisplay:10.37,2013-08-06 16:40:00,
2013-08-06 10:45:00,73.9,52.4,29.80,NW,306,0.0,5.0,47,0.00,CLR,CLR,0.00,WeatherDisplay:10.37,2013-08-06 16:45:00,
2013-08-06 10:55:00,75.1,51.7,29.80,WNW,300,0.0,1.0,44,0.00,CLR,CLR,0.00,WeatherDisplay:10.37,2013-08-06 16:55:00,
2013-08-06 11:00:00,75.6,53.9,29.80,West,277,0.0,5.0,47,0.00,CLR,CLR,0.00,WeatherDisplay:10.37,2013-08-06 17:00:00,
2013-08-06 11:05:00,76.1,51.3,29.80,WNW,295,0.0,3.0,42,0.00,CLR,CLR,0.00,WeatherDisplay:10.37,2013-08-06 17:05:00,
2013-08-06 11:10:00,76.7,53.2,29.79,West,279,0.0,1.0,44,0.00,CLR,CLR,0.00,WeatherDisplay:10.37,2013-08-06 17:10:00,
2013-08-06 11:15:00,77.5,53.8,29.79,West,268,0.0,3.0,44,0.00,CLR,CLR,0.00,WeatherDisplay:10.37,2013-08-06 17:15:00,
2013-08-06 11:20:00,77.8,54.7,29.79,WNW,294,0.0,1.0,45,0.00,CLR,CLR,0.00,WeatherDisplay:10.37,2013-08-06 17:20:00,
2013-08-06 11:25:00,77.9,53.6,29.79,West,261,0.0,4.0,43,0.00,CLR,CLR,0.00,WeatherDisplay:10.37,2013-08-06 17:25:00,
2013-08-06 11:30:00,78.5,52.8,29.79,WSW,257,0.0,3.0,41,0.00,CLR,CLR,0.00,WeatherDisplay:10.37,2013-08-06 17:30:00,
2013-08-06 11:35:00,78.7,54.3,29.79,West,278,0.0,4.0,43,0.00,CLR,CLR,0.00,WeatherDisplay:10.37,2013-08-06 17:35:00,
2013-08-06 11:40:00,78.8,53.7,29.79,West,277,0.0,4.0,42,0.00,CLR,CLR,0.00,WeatherDisplay:10.37,2013-08-06 17:40:00,
2013-08-06 11:45:00,78.7,53.7,29.79,West,278,1.0,7.0,42,0.00,CLR,CLR,0.00,WeatherDisplay:10.37,2013-08-06 17:45:00,
2013-08-06 11:50:00,78.8,53.8,29.78,West,281,0.0,3.0,42,0.00,CLR,CLR,0.00,WeatherDisplay:10.37,2013-08-06 17:50:00,
2013-08-06 11:55:00,79.4,53.6,29.79,West,276,1.0,6.0,41,0.00,CLR,CLR,0.00,WeatherDisplay:10.37,2013-08-06 17:55:00,
2013-08-06 12:00:00,79.7,51.8,29.79,WNW,292,0.0,4.0,38,0.00,CLR,CLR,0.00,WeatherDisplay:10.37,2013-08-06 18:00:00,
2013-08-06 12:05:00,79.9,54.7,29.78,WNW,290,0.0,4.0,42,0.00,CLR,CLR,0.00,WeatherDisplay:10.37,2013-08-06 18:05:00,
2013-08-06 12:10:00,80.2,54.4,29.78,West,260,1.0,9.0,41,0.00,CLR,CLR,0.00,WeatherDisplay:10.37,2013-08-06 18:10:00,
2013-08-06 12:15:00,79.9,53.4,29.78,West,265,0.0,6.0,40,0.00,CLR,CLR,0.00,WeatherDisplay:10.37,2013-08-06 18:15:00,
2013-08-06 12:20:00,79.4,52.2,29.78,West,265,1.0,4.0,39,0.00,CLR,CLR,0.00,WeatherDisplay:10.37,2013-08-06 18:20:00,
2013-08-06 12:25:00,78.7,53.0,29.77,WSW,240,0.0,1.0,41,0.00,CLR,CLR,0.00,WeatherDisplay:10.37,2013-08-06 18:25:00,
2013-08-06 12:30:00,78.2,53.3,29.77,WSW,244,0.0,4.0,42,0.00,CLR,CLR,0.00,WeatherDisplay:10.37,2013-08-06 18:30:00,
2013-08-06 12:35:00,77.6,53.9,29.77,WSW,252,0.0,2.0,44,0.00,CLR,CLR,0.00,WeatherDisplay:10.37,2013-08-06 18:35:00,
2013-08-06 12:40:00,76.9,53.3,29.77,WSW,251,0.0,4.0,44,0.00,CLR,CLR,0.00,WeatherDisplay:10.37,2013-08-06 18:40:00,
2013-08-06 12:45:00,76.4,51.6,29.77,WSW,243,0.0,5.0,42,0.00,CLR,CLR,0.00,WeatherDisplay:10.37,2013-08-06 18:45:00,
2013-08-06 12:50:00,76.1,52.0,29.77,WSW,244,0.0,4.0,43,0.00,CLR,CLR,0.00,WeatherDisplay:10.37,2013-08-06 18:50:00,
2013-08-06 13:00:00,76.0,52.5,29.77,WSW,255,0.0,2.0,44,0.00,CLR,CLR,0.00,WeatherDisplay:10.37,2013-08-06 19:00:00,
2013-08-06 13:05:00,76.1,50.7,29.77,SW,236,0.0,6.0,41,0.00,CLR,CLR,0.00,WeatherDisplay:10.37,2013-08-06 19:05:00,
2013-08-06 13:15:00,76.8,50.7,29.76,SSW,209,2.0,7.0,40,0.00,CLR,CLR,0.00,WeatherDisplay:10.37,2013-08-06 19:15:00,
2013-08-06 13:20:00,77.1,51.0,29.77,SW,223,1.0,12.0,40,0.00,CLR,CLR,0.00,WeatherDisplay:10.37,2013-08-06 19:20:00,
2013-08-06 13:25:00,77.7,52.1,29.76,SW,222,2.0,7.0,41,0.00,CLR,CLR,0.00,WeatherDisplay:10.37,2013-08-06 19:25:00,
2013-08-06 13:30:00,78.3,51.3,29.76,SSW,212,1.0,9.0,39,0.00,CLR,CLR,0.00,WeatherDisplay:10.37,2013-08-06 19:30:00,
2013-08-06 13:35:00,78.4,51.4,29.76,SSW,204,0.0,9.0,39,0.00,CLR,CLR,0.00,WeatherDisplay:10.37,2013-08-06 19:35:00,
2013-08-06 13:40:00,78.7,52.3,29.76,SSW,199,1.0,9.0,40,0.00,CLR,CLR,0.00,WeatherDisplay:10.37,2013-08-06 19:40:00,
2013-08-06 13:50:00,78.7,52.3,29.75,South,171,3.0,9.0,40,0.00,CLR,CLR,0.00,WeatherDisplay:10.37,2013-08-06 19:50:00,
2013-08-06 13:55:00,78.7,51.7,29.75,South,175,5.0,12.0,39,0.00,CLR,CLR,0.00,WeatherDisplay:10.37,2013-08-06 19:55:00,
2013-08-06 14:05:00,79.7,51.8,29.74,South,177,6.0,10.0,38,0.00,CLR,CLR,0.00,WeatherDisplay:10.37,2013-08-06 20:05:00,
2013-08-06 14:15:00,80.6,52.6,29.74,SSE,168,2.0,10.0,38,0.00,CLR,CLR,0.00,WeatherDisplay:10.37,2013-08-06 20:15:00,
2013-08-06 14:25:00,82.5,52.1,29.75,SSE,147,2.0,7.0,35,0.00,CLR,CLR,0.00,WeatherDisplay:10.37,2013-08-06 20:25:00,
2013-08-06 14:35:00,77.7,50.1,29.77,East,81,0.0,17.0,38,0.00,CLR,CLR,0.00,WeatherDisplay:10.37,2013-08-06 20:35:00,
2013-08-06 14:45:00,74.1,50.8,29.78,NE,52,1.0,13.0,44,0.00,CLR,CLR,0.00,WeatherDisplay:10.37,2013-08-06 20:45:00,
2013-08-06 14:50:00,73.1,51.1,29.78,NE,43,0.0,7.0,46,0.00,CLR,CLR,0.00,WeatherDisplay:10.37,2013-08-06 20:50:00,
2013-08-06 14:55:00,72.6,51.7,29.78,East,94,6.0,12.0,48,0.00,CLR,CLR,0.00,WeatherDisplay:10.37,2013-08-06 20:55:00,
2013-08-06 15:05:00,71.7,52.1,29.78,East,94,3.0,12.0,50,0.00,CLR,CLR,0.00,WeatherDisplay:10.37,2013-08-06 21:05:00,
2013-08-06 15:10:00,71.5,52.4,29.78,East,86,1.0,14.0,51,0.00,CLR,CLR,0.00,WeatherDisplay:10.37,2013-08-06 21:10:00,
2013-08-06 15:15:00,71.5,51.9,29.79,East,93,5.0,14.0,50,0.00,CLR,CLR,0.00,WeatherDisplay:10.37,2013-08-06 21:15:00,
2013-08-06 15:25:00,72.5,52.2,29.79,ESE,104,3.0,10.0,49,0.00,CLR,CLR,0.00,WeatherDisplay:10.37,2013-08-06 21:25:00,
2013-08-06 15:35:00,72.7,52.4,29.79,East,97,2.0,12.0,49,0.00,CLR,CLR,0.00,WeatherDisplay:10.37,2013-08-06 21:35:00,
2013-08-06 15:40:00,73.0,52.7,29.78,East,96,7.0,13.0,49,0.00,CLR,CLR,0.00,WeatherDisplay:10.37,2013-08-06 21:40:00,
2013-08-06 15:45:00,73.5,54.8,29.79,ESE,102,3.0,13.0,52,0.00,CLR,CLR,0.00,WeatherDisplay:10.37,2013-08-06 21:45:00,
2013-08-06 15:50:00,74.3,53.9,29.79,ESE,102,1.0,7.0,49,0.00,CLR,CLR,0.00,WeatherDisplay:10.37,2013-08-06 21:50:00,
2013-08-06 15:55:00,74.8,52.6,29.79,East,97,0.0,8.0,46,0.00,CLR,CLR,0.00,WeatherDisplay:10.37,2013-08-06 21:55:00,
2013-08-06 16:00:00,74.7,53.2,29.79,East,79,0.0,0.0,47,0.00,CLR,CLR,0.00,WeatherDisplay:10.37,2013-08-06 22:00:00,
2013-08-06 16:05:00,74.9,55.6,29.80,NE,39,0.0,1.0,51,0.00,CLR,CLR,0.00,WeatherDisplay:10.37,2013-08-06 22:05:00,
2013-08-06 16:10:00,74.7,48.1,29.80,NNE,27,7.0,14.0,39,0.00,CLR,CLR,0.00,WeatherDisplay:10.37,2013-08-06 22:10:00,
2013-08-06 16:15:00,74.1,49.6,29.80,NNE,16,0.0,12.0,42,0.00,CLR,CLR,0.00,WeatherDisplay:10.37,2013-08-06 22:15:00,
2013-08-06 16:25:00,73.9,46.0,29.80,East,101,0.0,3.0,37,0.00,CLR,CLR,0.00,WeatherDisplay:10.37,2013-08-06 22:25:00,
2013-08-06 16:30:00,74.2,49.6,29.80,ESE,114,0.0,0.0,42,0.00,CLR,CLR,0.00,WeatherDisplay:10.37,2013-08-06 22:30:00,
2013-08-06 16:35:00,74.2,50.9,29.80,SE,124,0.0,0.0,44,0.00,CLR,CLR,0.00,WeatherDisplay:10.37,2013-08-06 22:35:00,
2013-08-06 16:40:00,74.3,48.4,29.80,SE,129,0.0,2.0,40,0.00,CLR,CLR,0.00,WeatherDisplay:10.37,2013-08-06 22:40:00,
2013-08-06 16:45:00,74.2,49.0,29.80,SE,136,0.0,3.0,41,0.00,CLR,CLR,0.00,WeatherDisplay:10.37,2013-08-06 22:45:00,
2013-08-06 16:50:00,74.1,48.9,29.80,SE,146,0.0,0.0,41,0.00,CLR,CLR,0.00,WeatherDisplay:10.37,2013-08-06 22:50:00,
2013-08-06 16:55:00,74.0,48.1,29.80,SSE,147,0.0,0.0,40,0.00,CLR,CLR,0.00,WeatherDisplay:10.37,2013-08-06 22:55:00,
2013-08-06 17:00:00,74.0,47.5,29.80,SSE,148,0.0,0.0,39,0.00,CLR,CLR,0.00,WeatherDisplay:10.37,2013-08-06 23:00:00,
2013-08-06 17:05:00,73.9,45.3,29.81,SSE,148,0.0,0.0,36,0.00,CLR,CLR,0.00,WeatherDisplay:10.37,2013-08-06 23:05:00,
2013-08-06 17:10:00,73.8,45.9,29.81,SSE,158,0.0,1.0,37,0.00,CLR,CLR,0.00,WeatherDisplay:10.37,2013-08-06 23:10:00,
2013-08-06 17:15:00,73.5,46.3,29.81,South,170,0.0,0.0,38,0.00,CLR,CLR,0.00,WeatherDisplay:10.37,2013-08-06 23:15:00,
2013-08-06 17:20:00,72.7,49.5,29.81,South,171,0.0,0.0,44,0.00,CLR,CLR,0.00,WeatherDisplay:10.37,2013-08-06 23:20:00,
2013-08-06 17:30:00,71.0,53.5,29.81,SSE,157,0.0,1.0,54,0.00,CLR,CLR,0.00,WeatherDisplay:10.37,2013-08-06 23:30:00,
2013-08-06 17:35:00,69.8,50.4,29.81,SSE,155,3.0,6.0,50,0.00,CLR,CLR,0.00,WeatherDisplay:10.37,2013-08-06 23:35:00,
2013-08-06 17:40:00,69.1,51.2,29.81,SSE,154,2.0,12.0,53,0.00,CLR,CLR,0.00,WeatherDisplay:10.37,2013-08-06 23:40:00,
2013-08-06 17:45:00,68.8,48.9,29.81,SSE,156,3.0,10.0,49,0.00,CLR,CLR,0.00,WeatherDisplay:10.37,2013-08-06 23:45:00,
2013-08-06 17:50:00,68.9,48.4,29.81,SSE,158,2.0,9.0,48,0.00,CLR,CLR,0.00,WeatherDisplay:10.37,2013-08-06 23:50:00,
2013-08-06 17:55:00,69.1,48.1,29.81,South,170,1.0,6.0,47,0.00,CLR,CLR,0.00,WeatherDisplay:10.37,2013-08-06 23:55:00,
2013-08-06 18:00:00,69.4,47.7,29.81,SSW,206,2.0,6.0,46,0.00,CLR,CLR,0.00,WeatherDisplay:10.37,2013-08-07 00:00:00,
2013-08-06 18:05:00,69.6,47.3,29.81,SW,218,0.0,5.0,45,0.00,CLR,CLR,0.00,WeatherDisplay:10.37,2013-08-07 00:05:00,
2013-08-06 18:10:00,70.2,46.7,29.80,SW,221,1.0,6.0,43,0.00,CLR,CLR,0.00,WeatherDisplay:10.37,2013-08-07 00:10:00,
2013-08-06 18:15:00,70.7,47.1,29.80,SSW,201,2.0,6.0,43,0.00,CLR,CLR,0.00,WeatherDisplay:10.37,2013-08-07 00:15:00,
2013-08-06 18:20:00,70.7,47.1,29.79,South,171,5.0,9.0,43,0.00,CLR,CLR,0.00,WeatherDisplay:10.37,2013-08-07 00:20:00,
2013-08-06 18:25:00,70.3,48.0,29.79,SSE,158,5.0,10.0,45,0.00,CLR,CLR,0.00,WeatherDisplay:10.37,2013-08-07 00:25:00,
2013-08-06 18:30:00,70.1,48.4,29.79,SSE,157,1.0,9.0,46,0.00,CLR,CLR,0.00,WeatherDisplay:10.37,2013-08-07 00:30:00,
2013-08-06 18:35:00,69.9,48.7,29.79,SSE,152,1.0,6.0,47,0.00,CLR,CLR,0.00,WeatherDisplay:10.37,2013-08-07 00:35:00,
2013-08-06 18:40:00,69.6,48.5,29.79,SE,127,1.0,4.0,47,0.00,CLR,CLR,0.00,WeatherDisplay:10.37,2013-08-07 00:40:00,
2013-08-06 18:45:00,69.4,47.1,29.78,SE,125,6.0,10.0,45,0.00,CLR,CLR,0.00,WeatherDisplay:10.37,2013-08-07 00:45:00,
2013-08-06 18:50:00,69.5,49.5,29.79,ESE,118,0.0,9.0,49,0.00,CLR,CLR,0.00,WeatherDisplay:10.37,2013-08-07 00:50:00,
2013-08-06 18:55:00,69.0,51.1,29.79,East,90,1.0,5.0,53,0.00,CLR,CLR,0.00,WeatherDisplay:10.37,2013-08-07 00:55:00,
2013-08-06 19:00:00,68.0,51.3,29.79,East,79,0.0,1.0,55,0.00,CLR,CLR,0.00,WeatherDisplay:10.37,2013-08-07 01:00:00,
2013-08-06 19:05:00,67.5,50.8,29.80,East,80,0.0,0.0,55,0.00,CLR,CLR,0.00,WeatherDisplay:10.37,2013-08-07 01:05:00,
2013-08-06 19:10:00,67.2,50.0,29.80,East,80,0.0,0.0,54,0.00,CLR,CLR,0.00,WeatherDisplay:10.37,2013-08-07 01:10:00,
2013-08-06 19:15:00,67.2,49.5,29.81,East,80,0.0,0.0,53,0.00,CLR,CLR,0.00,WeatherDisplay:10.37,2013-08-07 01:15:00,
2013-08-06 19:20:00,67.2,48.5,29.81,East,80,0.0,0.0,51,0.00,CLR,CLR,0.00,WeatherDisplay:10.37,2013-08-07 01:20:00,
2013-08-06 19:25:00,67.3,49.1,29.82,East,80,0.0,0.0,52,0.00,CLR,CLR,0.00,WeatherDisplay:10.37,2013-08-07 01:25:00,
2013-08-06 19:30:00,67.3,50.1,29.82,East,80,0.0,0.0,54,0.00,CLR,CLR,0.00,WeatherDisplay:10.37,2013-08-07 01:30:00,
2013-08-06 19:35:00,67.0,49.3,29.82,East,80,0.0,0.0,53,0.00,CLR,CLR,0.00,WeatherDisplay:10.37,2013-08-07 01:35:00,
2013-08-06 19:40:00,66.5,50.8,29.82,East,80,0.0,1.0,57,0.00,CLR,CLR,0.00,WeatherDisplay:10.37,2013-08-07 01:40:00,
2013-08-06 19:45:00,65.8,49.2,29.82,East,82,0.0,1.0,55,0.00,CLR,CLR,0.00,WeatherDisplay:10.37,2013-08-07 01:45:00,
2013-08-06 19:50:00,65.8,49.7,29.82,ESE,122,0.0,0.0,56,0.00,CLR,CLR,0.00,WeatherDisplay:10.37,2013-08-07 01:50:00,
2013-08-06 19:55:00,65.4,49.3,29.82,SE,139,1.0,5.0,56,0.00,CLR,CLR,0.00,WeatherDisplay:10.37,2013-08-07 01:55:00,
2013-08-06 20:00:00,65.2,49.1,29.82,SE,141,0.0,1.0,56,0.00,CLR,CLR,0.00,WeatherDisplay:10.37,2013-08-07 02:00:00,
2013-08-06 20:05:00,65.0,49.9,29.82,SE,142,0.0,1.0,58,0.00,CLR,CLR,0.00,WeatherDisplay:10.37,2013-08-07 02:05:00,
2013-08-06 20:10:00,65.0,48.9,29.82,SE,138,0.0,2.0,56,0.00,CLR,CLR,0.00,WeatherDisplay:10.37,2013-08-07 02:10:00,
2013-08-06 20:15:00,65.2,49.1,29.82,SE,131,0.0,1.0,56,0.00,CLR,CLR,0.00,WeatherDisplay:10.37,2013-08-07 02:15:00,
2013-08-06 20:20:00,65.2,49.1,29.82,SE,136,0.0,0.0,56,0.00,CLR,CLR,0.00,WeatherDisplay:10.37,2013-08-07 02:20:00,
2013-08-06 20:25:00,65.1,48.5,29.83,SE,138,0.0,0.0,55,0.00,CLR,CLR,0.00,WeatherDisplay:10.37,2013-08-07 02:25:00,
2013-08-06 20:30:00,65.2,48.6,29.82,SE,138,0.0,0.0,55,0.00,CLR,CLR,0.00,WeatherDisplay:10.37,2013-08-07 02:30:00,
2013-08-06 20:35:00,65.4,48.3,29.82,SE,136,0.0,0.0,54,0.00,CLR,CLR,0.00,WeatherDisplay:10.37,2013-08-07 02:35:00,
2013-08-06 20:40:00,65.4,48.3,29.82,SE,134,0.0,0.0,54,0.00,CLR,CLR,0.00,WeatherDisplay:10.37,2013-08-07 02:40:00,
2013-08-06 20:50:00,65.0,49.8,29.82,SE,140,0.0,0.0,58,0.00,CLR,CLR,0.00,WeatherDisplay:10.37,2013-08-07 02:50:00,
2013-08-06 20:55:00,64.1,49.5,29.82,SE,140,0.0,0.0,59,0.00,CLR,CLR,0.00,WeatherDisplay:10.37,2013-08-07 02:55:00,
2013-08-06 21:00:00,63.4,49.3,29.82,SE,140,0.0,0.0,60,0.00,CLR,CLR,0.00,WeatherDisplay:10.37,2013-08-07 03:00:00,
2013-08-06 21:10:00,62.3,49.1,29.82,SE,140,0.0,0.0,62,0.00,CLR,CLR,0.00,WeatherDisplay:10.37,2013-08-07 03:10:00,
2013-08-06 21:15:00,62.0,48.8,29.82,SE,140,0.0,0.0,62,0.00,CLR,CLR,0.00,WeatherDisplay:10.37,2013-08-07 03:15:00,
2013-08-06 21:25:00,60.6,49.6,29.82,SE,140,0.0,1.0,67,0.00,CLR,CLR,0.00,WeatherDisplay:10.37,2013-08-07 03:25:00,
2013-08-06 21:35:00,59.5,48.5,29.82,SE,140,0.0,0.0,67,0.00,CLR,CLR,0.00,WeatherDisplay:10.37,2013-08-07 03:35:00,
2013-08-06 21:40:00,59.7,48.7,29.82,SE,140,0.0,0.0,67,0.00,CLR,CLR,0.00,WeatherDisplay:10.37,2013-08-07 03:40:00,
2013-08-06 21:45:00,59.7,48.8,29.82,SE,140,0.0,0.0,67,0.00,CLR,CLR,0.00,WeatherDisplay:10.37,2013-08-07 03:45:00,
2013-08-06 21:50:00,59.7,48.4,29.82,SE,140,0.0,1.0,66,0.00,CLR,CLR,0.00,WeatherDisplay:10.37,2013-08-07 03:50:00,
2013-08-06 21:55:00,59.9,48.5,29.82,SE,139,0.0,1.0,66,0.00,CLR,CLR,0.00,WeatherDisplay:10.37,2013-08-07 03:55:00,
2013-08-06 22:00:00,60.3,48.1,29.82,SE,139,0.0,1.0,64,0.00,CLR,CLR,0.00,WeatherDisplay:10.37,2013-08-07 04:00:00,
2013-08-06 22:05:00,60.5,48.3,29.83,SE,129,2.0,5.0,64,0.00,CLR,CLR,0.00,WeatherDisplay:10.37,2013-08-07 04:05:00,
2013-08-06 22:10:00,60.7,48.0,29.83,ESE,122,0.0,4.0,63,0.00,CLR,CLR,0.00,WeatherDisplay:10.37,2013-08-07 04:10:00,
2013-08-06 22:15:00,60.7,48.0,29.83,SE,125,0.0,3.0,63,0.00,CLR,CLR,0.00,WeatherDisplay:10.37,2013-08-07 04:15:00,
2013-08-06 22:20:00,60.3,48.1,29.83,SE,126,0.0,2.0,64,0.00,CLR,CLR,0.00,WeatherDisplay:10.37,2013-08-07 04:20:00,
2013-08-06 22:25:00,60.0,48.2,29.84,ESE,121,0.0,0.0,65,0.00,CLR,CLR,0.00,WeatherDisplay:10.37,2013-08-07 04:25:00,
2013-08-06 22:30:00,59.0,48.0,29.84,ESE,123,0.0,0.0,67,0.00,CLR,CLR,0.00,WeatherDisplay:10.37,2013-08-07 04:30:00,
2013-08-06 22:35:00,57.8,47.7,29.84,SE,129,0.0,0.0,69,0.00,CLR,CLR,0.00,WeatherDisplay:10.37,2013-08-07 04:35:00,
2013-08-06 22:40:00,56.9,47.6,29.84,SE,132,0.0,0.0,71,0.00,CLR,CLR,0.00,WeatherDisplay:10.37,2013-08-07 04:40:00,
2013-08-06 22:45:00,56.3,47.8,29.84,SE,132,0.0,2.0,73,0.00,CLR,CLR,0.00,WeatherDisplay:10.37,2013-08-07 04:45:00,
2013-08-06 22:50:00,56.2,48.0,29.84,SE,128,0.0,0.0,74,0.00,CLR,CLR,0.00,WeatherDisplay:10.37,2013-08-07 04:50:00,
2013-08-06 23:00:00,56.8,47.8,29.84,SE,127,0.0,2.0,72,0.00,CLR,CLR,0.00,WeatherDisplay:10.37,2013-08-07 05:00:00,
2013-08-06 23:05:00,57.1,47.8,29.84,SE,135,0.0,0.0,71,0.00,CLR,CLR,0.00,WeatherDisplay:10.37,2013-08-07 05:05:00,
2013-08-06 23:10:00,57.1,47.7,29.84,SE,136,0.0,0.0,71,0.00,CLR,CLR,0.00,WeatherDisplay:10.37,2013-08-07 05:10:00,
2013-08-06 23:15:00,56.8,47.9,29.84,SE,136,0.0,0.0,72,0.00,CLR,CLR,0.00,WeatherDisplay:10.37,2013-08-07 05:15:00,
2013-08-06 23:20:00,56.6,48.0,29.85,SE,136,0.0,0.0,73,0.00,CLR,CLR,0.00,WeatherDisplay:10.37,2013-08-07 05:20:00,
2013-08-06 23:25:00,56.2,47.7,29.85,SE,136,0.0,0.0,73,0.00,CLR,CLR,0.00,WeatherDisplay:10.37,2013-08-07 05:25:00,
2013-08-06 23:30:00,56.3,47.7,29.84,SE,136,0.0,0.0,73,0.00,CLR,CLR,0.00,WeatherDisplay:10.37,2013-08-07 05:30:00,
2013-08-06 23:40:00,57.3,47.6,29.84,SE,137,1.0,3.0,70,0.00,CLR,CLR,0.00,WeatherDisplay:10.37,2013-08-07 05:40:00,
2013-08-06 23:45:00,57.3,47.6,29.84,SE,139,3.0,7.0,70,0.00,CLR,CLR,0.00,WeatherDisplay:10.37,2013-08-07 05:45:00,
2013-08-06 23:50:00,57.8,47.3,29.84,SE,135,2.0,8.0,68,0.00,CLR,CLR,0.00,WeatherDisplay:10.37,2013-08-07 05:50:00,